Time,TemperatureF,DewpointF,PressureIn,WindDirection,WindDirectionDegrees,WindSpeedMPH,WindSpeedGustMPH,Humidity,HourlyPrecipIn,Conditions,Clouds,dailyrainin,SolarRadiationWatts/m^2,SoftwareType,DateUTC
2013-02-24 00:10:00,41.6,40.0,29.83,North,360,0.0,3.0,94,0.05,,,0.69,0,weatherlink.com 1.10,2013-02-23 23:10:00,
2013-02-24 00:25:00,41.5,40.0,29.83,NW,314,0.0,0.0,94,0.04,,,0.70,0,weatherlink.com 1.10,2013-02-23 23:25:00,
2013-02-24 00:40:00,41.2,40.0,29.83,North,360,0.0,0.0,94,0.03,,,0.00,0,weatherlink.com 1.10,2013-02-23 23:40:00,
2013-02-24 00:55:00,41.2,40.0,29.82,North,360,0.0,0.0,94,0.03,,,0.01,0,weatherlink.com 1.10,2013-02-23 23:55:00,
2013-02-24 01:10:00,41.2,40.0,29.82,NW,315,0.0,1.0,94,0.02,,,0.02,0,weatherlink.com 1.10,2013-02-24 00:10:00,
2013-02-24 01:25:00,41.3,40.0,29.81,NW,315,0.0,1.0,94,0.02,,,0.02,0,weatherlink.com 1.10,2013-02-24 00:25:00,
2013-02-24 01:40:00,41.6,40.0,29.81,NW,316,0.0,3.0,94,0.04,,,0.04,0,weatherlink.com 1.10,2013-02-24 00:40:00,
2013-02-24 01:55:00,41.8,40.0,29.81,North,360,0.0,2.0,94,0.04,,,0.05,0,weatherlink.com 1.10,2013-02-24 00:55:00,
2013-02-24 02:10:00,41.9,40.0,29.80,NE,56,2.0,3.0,94,0.05,,,0.06,0,weatherlink.com 1.10,2013-02-24 01:10:00,
2013-02-24 02:25:00,41.9,40.0,29.80,West,275,0.0,4.0,94,0.07,,,0.09,0,weatherlink.com 1.10,2013-02-24 01:25:00,
2013-02-24 02:40:00,42.0,40.0,29.80,South,185,1.0,4.0,93,0.09,,,0.13,0,weatherlink.com 1.10,2013-02-24 01:40:00,
2013-02-24 02:55:00,42.0,40.0,29.80,North,360,2.0,6.0,93,0.08,,,0.13,0,weatherlink.com 1.10,2013-02-24 01:55:00,
2013-02-24 03:10:00,42.1,40.0,29.80,SSW,194,2.0,7.0,92,0.06,,,0.13,0,weatherlink.com 1.10,2013-02-24 02:10:00,
2013-02-24 03:25:00,42.2,40.0,29.80,SE,140,2.0,8.0,92,0.03,,,0.13,0,weatherlink.com 1.10,2013-02-24 02:25:00,
2013-02-24 03:40:00,42.3,40.0,29.80,SSW,213,3.0,6.0,91,0.00,,,0.13,0,weatherlink.com 1.10,2013-02-24 02:40:00,
2013-02-24 03:55:00,42.4,40.0,29.80,North,360,3.0,5.0,91,0.00,,,0.13,0,weatherlink.com 1.10,2013-02-24 02:55:00,
2013-02-24 04:10:00,42.4,40.0,29.80,SW,227,2.0,6.0,91,0.01,,,0.13,0,weatherlink.com 1.10,2013-02-24 03:10:00,
2013-02-24 04:25:00,42.5,40.0,29.81,SW,230,0.0,2.0,91,0.02,,,0.14,0,weatherlink.com 1.10,2013-02-24 03:25:00,
2013-02-24 04:40:00,42.4,40.0,29.82,SW,236,0.0,4.0,91,0.03,,,0.16,0,weatherlink.com 1.10,2013-02-24 03:40:00,
2013-02-24 04:55:00,42.2,40.0,29.81,SW,235,0.0,3.0,91,0.03,,,0.16,0,weatherlink.com 1.10,2013-02-24 03:55:00,
2013-02-24 05:10:00,42.1,40.0,29.82,SW,215,1.0,4.0,91,0.03,,,0.17,0,weatherlink.com 1.10,2013-02-24 04:10:00,
2013-02-24 05:25:00,42.1,40.0,29.82,North,360,2.0,5.0,91,0.02,,,0.17,0,weatherlink.com 1.10,2013-02-24 04:25:00,
2013-02-24 05:40:00,42.1,40.0,29.82,WSW,245,2.0,4.0,91,0.01,,,0.17,0,weatherlink.com 1.10,2013-02-24 04:40:00,
2013-02-24 05:55:00,42.2,40.0,29.83,WSW,240,0.0,1.0,91,0.01,,,0.17,0,weatherlink.com 1.10,2013-02-24 04:55:00,
2013-02-24 06:10:00,42.3,40.0,29.83,North,360,0.0,3.0,91,0.00,,,0.17,0,weatherlink.com 1.10,2013-02-24 05:10:00,
2013-02-24 06:26:00,42.3,40.0,29.83,NNW,329,0.0,2.0,91,0.00,,,0.17,0,weatherlink.com 1.10,2013-02-24 05:26:00,
2013-02-24 06:41:00,42.2,40.0,29.83,NNW,328,0.0,1.0,91,0.00,,,0.17,0,weatherlink.com 1.10,2013-02-24 05:41:00,
2013-02-24 06:56:00,42.1,40.0,29.84,NNE,26,0.0,3.0,91,0.00,,,0.17,0,weatherlink.com 1.10,2013-02-24 05:56:00,
2013-02-24 07:11:00,42.2,40.0,29.84,NE,38,0.0,3.0,91,0.00,,,0.17,5,weatherlink.com 1.10,2013-02-24 06:11:00,
2013-02-24 07:41:00,42.4,40.0,29.86,WSW,241,0.0,5.0,90,0.00,,,0.17,14,weatherlink.com 1.10,2013-02-24 06:41:00,
2013-02-24 08:11:00,42.8,40.0,29.86,NNW,346,0.0,5.0,90,0.00,,,0.17,39,weatherlink.com 1.10,2013-02-24 07:11:00,
2013-02-24 08:26:00,43.0,40.0,29.86,NE,36,0.0,5.0,89,0.00,,,0.17,42,weatherlink.com 1.10,2013-02-24 07:26:00,
2013-02-24 08:56:00,43.2,40.0,29.87,NE,49,0.0,4.0,89,0.00,,,0.17,42,weatherlink.com 1.10,2013-02-24 07:56:00,
2013-02-24 09:11:00,43.3,40.0,29.88,NNE,17,4.0,8.0,88,0.00,,,0.17,40,weatherlink.com 1.10,2013-02-24 08:11:00,
2013-02-24 09:26:00,43.5,40.0,29.89,ENE,74,1.0,5.0,88,0.00,,,0.17,67,weatherlink.com 1.10,2013-02-24 08:26:00,
2013-02-24 09:41:00,43.7,40.0,29.89,NNE,22,1.0,4.0,88,0.00,,,0.17,51,weatherlink.com 1.10,2013-02-24 08:41:00,
2013-02-24 09:56:00,43.9,40.0,29.89,East,91,0.0,6.0,87,0.00,,,0.17,53,weatherlink.com 1.10,2013-02-24 08:56:00,
2013-02-24 10:11:00,44.1,41.0,29.89,WSW,238,1.0,4.0,87,0.00,,,0.17,56,weatherlink.com 1.10,2013-02-24 09:11:00,
2013-02-24 10:26:00,44.3,40.0,29.90,SSW,194,3.0,5.0,86,0.00,,,0.17,44,weatherlink.com 1.10,2013-02-24 09:26:00,
2013-02-24 10:41:00,44.4,41.0,29.90,East,101,0.0,7.0,86,0.00,,,0.17,40,weatherlink.com 1.10,2013-02-24 09:41:00,
2013-02-24 10:56:00,44.5,41.0,29.90,North,360,1.0,6.0,86,0.00,,,0.17,47,weatherlink.com 1.10,2013-02-24 09:56:00,
2013-02-24 11:11:00,44.7,41.0,29.90,NNE,28,3.0,4.0,86,0.00,,,0.17,42,weatherlink.com 1.10,2013-02-24 10:11:00,
2013-02-24 11:26:00,44.9,41.0,29.90,South,176,3.0,6.0,85,0.00,,,0.17,19,weatherlink.com 1.10,2013-02-24 10:26:00,
2013-02-24 11:41:00,45.0,41.0,29.90,NW,313,5.0,11.0,86,0.01,,,0.17,25,weatherlink.com 1.10,2013-02-24 10:41:00,
2013-02-24 11:56:00,44.6,42.0,29.90,SW,217,3.0,8.0,89,0.02,,,0.19,26,weatherlink.com 1.10,2013-02-24 10:56:00,
2013-02-24 12:11:00,44.2,42.0,29.89,NE,44,2.0,8.0,91,0.06,,,0.22,21,weatherlink.com 1.10,2013-02-24 11:11:00,
2013-02-24 12:26:00,44.0,42.0,29.90,SW,223,2.0,5.0,91,0.07,,,0.24,21,weatherlink.com 1.10,2013-02-24 11:26:00,
2013-02-24 12:41:00,43.9,42.0,29.89,SE,127,2.0,8.0,92,0.07,,,0.24,28,weatherlink.com 1.10,2013-02-24 11:41:00,
2013-02-24 12:56:00,44.0,42.0,29.89,North,360,6.0,10.0,92,0.06,,,0.24,39,weatherlink.com 1.10,2013-02-24 11:56:00,
2013-02-24 13:11:00,44.1,42.0,29.88,South,191,3.0,9.0,92,0.03,,,0.25,26,weatherlink.com 1.10,2013-02-24 12:11:00,
2013-02-24 13:26:00,44.2,42.0,29.89,NE,36,1.0,5.0,93,0.03,,,0.27,19,weatherlink.com 1.10,2013-02-24 12:26:00,
2013-02-24 13:41:00,44.1,42.0,29.89,North,5,0.0,8.0,93,0.03,,,0.28,14,weatherlink.com 1.10,2013-02-24 12:41:00,
2013-02-24 13:56:00,43.9,42.0,29.89,NE,52,2.0,4.0,93,0.04,,,0.28,18,weatherlink.com 1.10,2013-02-24 12:56:00,
2013-02-24 14:11:00,43.9,42.0,29.89,NNE,19,3.0,4.0,93,0.04,,,0.29,16,weatherlink.com 1.10,2013-02-24 13:11:00,
2013-02-24 14:26:00,44.0,42.0,29.88,NE,56,0.0,6.0,94,0.03,,,0.30,9,weatherlink.com 1.10,2013-02-24 13:26:00,
2013-02-24 14:41:00,44.0,42.0,29.88,SSW,192,3.0,5.0,94,0.02,,,0.30,12,weatherlink.com 1.10,2013-02-24 13:41:00,
2013-02-24 14:56:00,44.0,42.0,29.87,NNE,15,5.0,8.0,94,0.02,,,0.30,14,weatherlink.com 1.10,2013-02-24 13:56:00,
2013-02-24 15:11:00,44.1,43.0,29.87,WSW,238,1.0,6.0,94,0.01,,,0.30,14,weatherlink.com 1.10,2013-02-24 14:11:00,
2013-02-24 15:26:00,44.2,43.0,29.87,South,182,1.0,5.0,94,0.00,,,0.30,9,weatherlink.com 1.10,2013-02-24 14:26:00,
2013-02-24 15:41:00,44.3,43.0,29.88,NNE,25,5.0,6.0,94,0.00,,,0.30,11,weatherlink.com 1.10,2013-02-24 14:41:00,
2013-02-24 15:56:00,44.4,43.0,29.87,North,5,0.0,4.0,94,0.00,,,0.30,5,weatherlink.com 1.10,2013-02-24 14:56:00,
2013-02-24 16:11:00,44.5,43.0,29.86,SSE,151,2.0,7.0,94,0.00,,,0.30,0,weatherlink.com 1.10,2013-02-24 15:11:00,
2013-02-24 16:26:00,44.5,43.0,29.87,North,360,2.0,3.0,94,0.00,,,0.30,5,weatherlink.com 1.10,2013-02-24 15:26:00,
2013-02-24 16:41:00,44.6,43.0,29.87,NNE,22,0.0,6.0,94,0.00,,,0.30,0,weatherlink.com 1.10,2013-02-24 15:41:00,
2013-02-24 16:56:00,44.6,43.0,29.88,SW,234,0.0,4.0,94,0.00,,,0.30,0,weatherlink.com 1.10,2013-02-24 15:56:00,
2013-02-24 17:11:00,44.7,43.0,29.88,SSW,199,2.0,4.0,94,0.00,,,0.30,0,weatherlink.com 1.10,2013-02-24 16:11:00,
2013-02-24 17:41:00,45.0,43.0,29.89,North,360,0.0,3.0,93,0.00,,,0.30,0,weatherlink.com 1.10,2013-02-24 16:41:00,
2013-02-24 17:56:00,45.1,43.0,29.89,NNW,337,0.0,2.0,93,0.00,,,0.30,0,weatherlink.com 1.10,2013-02-24 16:56:00,
2013-02-24 18:11:00,45.3,43.0,29.89,NE,36,0.0,5.0,93,0.00,,,0.30,0,weatherlink.com 1.10,2013-02-24 17:11:00,
2013-02-24 19:27:00,45.4,43.0,29.91,North,350,0.0,3.0,92,0.00,,,0.30,0,weatherlink.com 1.10,2013-02-24 18:27:00,
2013-02-24 19:57:00,45.2,43.0,29.92,North,360,0.0,2.0,92,0.00,,,0.30,0,weatherlink.com 1.10,2013-02-24 18:57:00,
2013-02-24 20:12:00,45.2,43.0,29.92,WSW,242,0.0,2.0,92,0.00,,,0.30,0,weatherlink.com 1.10,2013-02-24 19:12:00,
2013-02-24 20:27:00,45.2,43.0,29.92,North,5,0.0,0.0,92,0.02,,,0.31,0,weatherlink.com 1.10,2013-02-24 19:27:00,
2013-02-24 20:42:00,45.2,43.0,29.92,WNW,296,0.0,3.0,92,0.05,,,0.35,0,weatherlink.com 1.10,2013-02-24 19:42:00,
2013-02-24 21:41:00,44.5,42.0,29.92,NNE,15,0.0,5.0,92,0.12,,,0.46,0,weatherlink.com 1.10,2013-02-24 20:41:00,
2013-02-24 21:56:00,44.4,43.0,29.92,NNE,15,0.0,1.0,93,0.09,,,0.47,0,weatherlink.com 1.10,2013-02-24 20:56:00,
2013-02-24 22:11:00,44.4,43.0,29.92,NNE,15,0.0,0.0,93,0.06,,,0.48,0,weatherlink.com 1.10,2013-02-24 21:11:00,
2013-02-24 22:26:00,44.6,43.0,29.92,NNE,15,0.0,0.0,93,0.04,,,0.49,0,weatherlink.com 1.10,2013-02-24 21:26:00,
2013-02-24 22:56:00,44.8,43.0,29.92,West,263,0.0,3.0,93,0.02,,,0.49,0,weatherlink.com 1.10,2013-02-24 21:56:00,
2013-02-24 23:57:00,44.8,43.0,29.93,SW,230,2.0,3.0,94,0.00,,,0.49,0,weatherlink.com 1.10,2013-02-24 22:57:00,